Tracking 30970 objects as of 3-Jul-2025
HD Live streaming from Space Station
objects crossing your sky now

STARLINK-11072

Track STARLINK-11072 now!
10-day predictions
STARLINK-11072 is classified as:


NORAD ID: 58705
Int'l Code: 2024-002A
Perigee: 366.3 km
Apogee: 367.4 km
Inclination: 53.2 °
Period: 91.7 minutes
Semi major axis: 6737 km
RCS: Unknown
Launch date: January 3, 2024
Source: United States (US)
Launch site: AIR FORCE WESTERN TEST RANGE (AFWTR)
Your satellite tracking list
IRIDIUM 147
Track 1 satellite(s)




NASA's NSSDC Master Catalog

Two Line Element Set (TLE):
1 58705U 24002A   25183.95466104  .00001199  00000-0  14742-4 0  9999
2 58705  53.1595  65.1244 0000780  80.7247 279.3859 15.69716326 87217
Source of the keplerian elements: AFSPC